COSMOS 1275 DEB

Satellite information

Favourite Embed

Satellite Type and Status

DEBRISIN ORBIT

Key statistics

Satellite COSMOS 1275 DEB at a glance.

Uptime

16264

Days in orbit

Revolutions

≈ 13.5

Per day

Orbit

LEO

Low Earth Orbit

Inclination

82.8

Latest

Satellite identification and parameters

Extended collection of information and parameters for COSMOS 1275 DEB.

Object identification

Identified? True

Debris? True

Object name: COSMOS 1275 DEB

International designator: 1981-053SJ

Object number (NORAD): 42170

Object ID (CCSDS): 42170

Country: COMMONWEALTH OF INDEPENDENT STATES (CIS)

Current information (Y/N): Y

RCS size: SMALL

Orbital parameters

Period: 106.775 minutes

Inclination: 82.7644 deg

SMA: 7455.462 km

Apoapsis: 1224.604 km

Periapsis: 930.05 km

RAAN: 52.4363 deg

Eccentricy: 0.0197543

Argument of periapsis: 103.9323 deg

Mean anomaly: 258.3874 deg

Mean motion: 13.4862411 rev/day

Mean motion (dot): 0.00000516 rev/day2

B* drag term: 0.00071245108 1/REarth

Two-line elements (TLE)

Creation date: Dec. 11, 2025, 7:14 p.m.

Reference frame: TEME

Reference center: EARTH

Epoch: Dec. 11, 2025, 12:06 p.m. UTC

TLE line 0: 0 COSMOS 1275 DEB

TLE line 1: 1 42170U 81053SJ 25345.50475316 .00000516 00000-0 71245-3 0 9995

TLE line 2: 2 42170 82.7644 52.4363 0197543 103.9323 258.3874 13.48624110559983

Live tracking on map

Real-time ground track for satellite COSMOS 1275 DEB.

In-orbit conjunctions

A list of the most updated potential collisions computed for object COSMOS 1275 DEB.

Target Orbit TCA Probability of collision Miss distance Type
SL-14 DEB LEO 2025-11-07 01:44:50 0.0001730754 114.0 (m) DEBRIS
FENGYUN 1C DEB SSO 2025-03-24 05:17:46 0.0001002586 150.0 (m) DEBRIS

Associated space launch

Navigation satellite providing location information for the Tsiklon-B navigation system

COSMOS 1275 DEB was lifted into orbit during the mission ‘Kosmos-3M | Parus 27’, on board a Kosmos-3M space rocket.

The launch took place on June 4, 1981, 3:41 p.m. from 132/2.

For more information about the launch, click the button.

Launch to space Kosmos-3M | Parus 27
Kosmos-3M | Parus 27

Agency: N/A

Status: Launch Successful

Launch date: June 4, 1981, 3:41 p.m. UTC

Rocket: Kosmos-3M

Launch pad: 132/2

Location: Plesetsk Cosmodrome, Russian Federation

...

Latest news about this satellite

There are no fresh news available about this satellite. Check back as we update our databases every day.


Newsletter sign-up

Weekly statistics, charts and insights to help you stay on top of the space industry.